Terug naar catalogus

STARLINK-30841

ActiefCommunicatieVLEO
NORAD 58208·PAYLOAD·🇺🇸 United States

Gelanceerd Nov 3, 2023 vanaf Cape Canaveral Space Force Station

Loading…

Volgende Passages (komende 24 uur)

TLE

VersSource: CelesTrak SupGP

Epoch: Sep 14, 2026, 22:13 UTC

1 58208C 23170C   26257.92618056  .00001882  00000+0  68165-4 0  2570
2 58208  43.0015 205.7476 0001245 259.4032 253.8212 15.27578405    14

Volg STARLINK-30841 in realtime met AllMySat

Download on the App Store